Probability
0 0 26 26 26 23 26 29 32 29 32 35 35 32 32 29 29 26 23 26 23 23 19 19 23 23 23 26 26 19 13 16 13 13 13 13 16 13 13 13 10 10 23
0 0 26 26 26 29 29 29 32 35 35 32 32 32 32 26 26 23 23 26 23 19 23 16 16 16 23 19 19 16 16 10 6 6 3 3 13 13 10 13 16 10 16
0 10 23 26 29 26 26 26 29 32 39 32 29 29 32 32 26 26 19 13 19 16 13 16 13 13 10 13 13 10 10 3 3 3 0 0 3 13 13 13 13 16 16
0 10 16 26 32 26 26 26 29 29 32 29 29 32 32 26 26 19 13 13 16 13 13 16 13 13 10 10 10 6 3 3 3 0 0 0 3 10 6 10 13 13 13
0 16 16 26 29 26 26 26 26 26 26 26 32 32 32 26 23 16 10 10 6 10 13 13 13 10 10 6 6 6 3 3 0 0 0 0 0 6 3 6 10 6 16
10 13 16 26 26 26 26 26 26 29 26 26 32 32 26 16 16 13 10 10 10 10 10 10 13 10 6 6 6 3 3 0 0 0 0 0 0 6 3 3 6 3 0
10 10 16 26 26 26 26 26 26 29 29 26 26 23 23 16 16 13 10 10 10 6 10 10 10 10 6 10 6 3 0 0 0 0 0 0 0 3 3 3 3 0 0
10 13 19 26 26 26 29 26 26 29 29 29 26 19 19 19 13 10 10 10 10 10 6 10 10 6 6 10 6 0 0 0 0 0 0 0 0 0 3 3 0 0 0
10 10 13 19 23 26 26 26 23 23 26 19 19 19 19 16 16 13 10 10 10 10 10 10 6 6 6 3 0 0 0 0 0 0 0 0 0 0 3 0 0 0 0
6 6 10 13 10 16 16 16 16 19 16 16 16 13 10 13 10 10 10 10 10 10 10 6 6 6 3 0 0 0 0 0 0 0 0 0 0 0 3 0 0 0 0
6 3 3 6 10 10 10 10 10 10 13 10 6 3 3 0 3 3 6 3 6 6 6 6 6 3 0 0 0 0 0 0 0 0 0 0 0 0 0 0 0 0 0
0 3 3 3 6 6 6 6 6 3 3 6 6 3 0 0 0 0 0 0 0 0 0 0 0 0 0 0 0 0 0 0 0 0 0 0 0 0 0 0 0 0 0
0 0 3 3 3 3 3 3 3 3 3 6 6 6 0 0 0 0 0 0 0 0 0 0 0 0 0 0 0 0 0 0 0 0 0 0 0 0 0 0 0 0 0
0 0 0 3 3 3 3 3 3 3 3 3 3 3 3 3 0 0 0 0 0 0 0 0 0 0 0 0 0 0 0 0 0 0 0 0 0 0 0 0 3 3 3
0 0 0 0 3 3 3 3 3 3 3 3 3 0 0 0 0 0 0 0 0 0 0 0 0 0 0 0 0 0 0 0 0 0 0 0 0 0 0 0 0 0 0
0 0 0 0 0 3 3 3 3 3 3 3 3 0 0 0 0 0 0 0 0 0 0 0 0 0 0 0 0 0 0 0 0 0 0 0 0 0 0 0 0 0 0
0 0 0 0 0 0 0 3 3 3 3 3 3 0 0 0 0 0 0 0 0 0 0 0 0 0 0 0 0 0 0 0 0 0 0 0 0 0 0 0 0 0 0
0 0 0 0 0 0 0 0 3 3 3 3 3 0 0 0 0 0 0 0 0 0 0 0 0 0 0 0 0 0 0 0 0 0 0 0 0 0 0 0 0 0 0
0 0 0 0 0 0 0 0 0 0 3 0 0 0 0 0 0 0 0 0 0 0 0 0 0 0 0 0 0 0 0 0 0 0 0 0 0 0 0 0 0 0 0
0 0 0 0 0 0 0 0 0 0 0 0 0 0 0 0 0 0 0 0 0 0 0 0 0 0 0 0 0 0 0 0 0 0 0 0 0 0 0 0 0 0 0
0 0 0 0 0 0 0 0 0 0 0 0 0 0 0 0 0 0 0 0 0 0 0 0 0 0 0 0 0 0 0 0 0 0 0 0 0 0 0 0 0 0 0
0 0 0 0 0 0 0 0 0 0 0 0 0 0 0 0 0 0 0 0 0 0 0 0 0 0 0 0 0 0 0 0 0 0 0 0 0 0 0 0 0 0 0
0 0 0 0 0 0 0 0 0 0 0 0 0 0 0 0 0 0 0 0 0 0 0 0 0 0 0 0 0 0 0 0 0 0 0 0 0 0 0 0 0 0 0
0 0 0 0 0 0 0 0 0 0 0 0 0 0 0 0 0 0 0 0 0 0 0 0 0 0 0 0 0 0 0 0 0 0 0 0 0 0 0 0 0 0 0
0 0 0 0 0 0 0 0 0 0 0 0 0 0 0 0 0 0 0 0 0 0 0 0 0 0 0 0 0 0 0 0 0 0 0 0 0 0 0 0 0 0 0
0 0 0 0 0 0 0 0 0 0 0 0 0 0 0 0 0 0 0 0 0 0 0 0 0 0 0 0 0 0 0 0 0 0 0 0 0 0 0 0 0 0 0
Height
5828 5829 5829 5830 5831 5832 5833 5834 5835 5836 5837 5838 5839 5839 5840 5841 5842 5843 5844 5845 5845 5846 5847 5848 5848 5849 5849 5850 5851 5851 5852 5852 5853 5853 5853 5854 5854 5854 5854 5854 5855 5855 5855
5825 5826 5827 5828 5829 5830 5831 5832 5833 5833 5834 5835 5836 5838 5839 5839 5840 5841 5842 5843 5844 5845 5846 5846 5847 5848 5848 5849 5850 5850 5851 5851 5852 5852 5852 5853 5853 5854 5854 5854 5854 5854 5854
5822 5823 5824 5825 5826 5827 5828 5829 5830 5831 5832 5833 5834 5835 5836 5837 5838 5839 5840 5841 5842 5843 5844 5845 5846 5846 5847 5847 5848 5849 5849 5850 5850 5851 5851 5852 5852 5853 5853 5853 5853 5853 5853
5818 5819 5821 5822 5823 5824 5825 5826 5827 5828 5829 5830 5831 5833 5834 5835 5836 5837 5838 5839 5840 5841 5842 5843 5844 5844 5845 5846 5847 5847 5848 5848 5849 5850 5850 5851 5851 5852 5852 5852 5852 5852 5852
5815 5816 5817 5818 5819 5821 5822 5823 5824 5825 5826 5827 5829 5830 5831 5832 5834 5835 5836 5837 5838 5839 5840 5841 5842 5842 5843 5844 5845 5845 5846 5847 5847 5848 5849 5849 5850 5850 5850 5851 5851 5851 5851
5810 5811 5813 5814 5816 5817 5818 5820 5821 5822 5823 5824 5825 5827 5828 5829 5831 5832 5833 5834 5835 5836 5837 5838 5839 5840 5841 5841 5842 5843 5844 5845 5846 5846 5847 5848 5848 5849 5849 5849 5850 5850 5850
5806 5807 5809 5810 5811 5813 5814 5816 5817 5818 5820 5821 5822 5823 5825 5826 5827 5829 5830 5831 5832 5833 5834 5835 5836 5837 5838 5839 5840 5841 5841 5842 5843 5844 5845 5846 5846 5847 5847 5847 5848 5848 5848
5801 5802 5804 5805 5807 5809 5810 5811 5813 5814 5816 5817 5818 5820 5821 5822 5824 5825 5826 5828 5829 5830 5831 5832 5833 5834 5835 5836 5837 5838 5839 5840 5841 5842 5843 5843 5844 5845 5845 5845 5846 5846 5846
5796 5797 5799 5800 5802 5804 5806 5807 5808 5810 5811 5813 5814 5815 5817 5818 5820 5821 5822 5824 5825 5827 5828 5829 5830 5831 5832 5833 5834 5835 5836 5837 5838 5839 5840 5841 5841 5842 5842 5843 5843 5844 5844
5790 5792 5793 5795 5797 5799 5800 5802 5803 5805 5806 5808 5810 5811 5812 5814 5815 5817 5819 5820 5821 5823 5824 5825 5826 5827 5828 5830 5831 5831 5832 5834 5835 5836 5837 5837 5838 5839 5839 5840 5840 5841 5841
5784 5786 5787 5789 5791 5793 5795 5796 5798 5800 5801 5803 5805 5806 5808 5809 5811 5813 5814 5816 5817 5819 5820 5821 5822 5823 5825 5826 5827 5828 5829 5830 5831 5832 5833 5834 5835 5835 5836 5836 5837 5837 5838
5777 5779 5781 5783 5785 5787 5789 5790 5792 5794 5796 5798 5799 5801 5803 5804 5806 5808 5810 5811 5813 5814 5816 5817 5818 5819 5821 5822 5823 5824 5825 5826 5827 5828 5829 5830 5831 5831 5832 5833 5833 5834 5834
5769 5772 5774 5776 5778 5780 5782 5784 5786 5788 5790 5792 5794 5796 5797 5799 5801 5803 5804 5806 5808 5809 5811 5812 5814 5815 5816 5817 5819 5820 5821 5822 5823 5824 5825 5826 5827 5827 5828 5829 5829 5830 5830
5761 5764 5766 5769 5771 5773 5775 5777 5780 5782 5784 5786 5787 5790 5792 5793 5795 5797 5799 5801 5803 5804 5806 5807 5809 5810 5811 5813 5814 5815 5816 5818 5819 5820 5821 5822 5822 5823 5824 5824 5825 5826 5826
5753 5756 5759 5761 5763 5766 5768 5770 5772 5775 5777 5779 5781 5783 5786 5787 5789 5791 5793 5795 5797 5799 5801 5802 5804 5805 5806 5807 5809 5810 5811 5813 5814 5815 5815 5816 5817 5818 5819 5820 5820 5821 5821
5744 5747 5750 5753 5756 5758 5759 5762 5765 5767 5770 5772 5774 5777 5779 5781 5783 5785 5787 5789 5791 5793 5795 5796 5798 5799 5801 5802 5803 5804 5806 5807 5808 5809 5810 5811 5811 5812 5813 5814 5815 5816 5816
5735 5738 5741 5744 5747 5750 5752 5755 5757 5760 5762 5765 5767 5769 5771 5774 5776 5778 5780 5782 5784 5786 5788 5790 5791 5793 5795 5796 5797 5798 5800 5801 5802 5803 5804 5805 5806 5807 5808 5808 5809 5810 5811
5725 5729 5732 5735 5738 5741 5744 5746 5749 5752 5754 5757 5759 5762 5764 5766 5769 5771 5773 5775 5777 5779 5781 5783 5785 5786 5788 5789 5791 5792 5793 5794 5796 5797 5798 5799 5799 5800 5801 5802 5803 5804 5804
5715 5719 5722 5725 5728 5731 5734 5737 5740 5743 5745 5748 5751 5753 5756 5758 5761 5763 5766 5768 5770 5772 5774 5776 5777 5779 5781 5782 5784 5785 5787 5788 5789 5790 5791 5792 5792 5793 5794 5795 5796 5797 5798
5705 5708 5712 5715 5718 5721 5724 5727 5730 5733 5736 5739 5742 5745 5747 5750 5752 5754 5757 5759 5762 5764 5766 5768 5770 5772 5773 5774 5776 5778 5779 5781 5782 5783 5783 5784 5785 5786 5787 5788 5788 5789 5790
5693 5697 5701 5704 5707 5711 5714 5717 5720 5723 5726 5729 5732 5735 5738 5740 5743 5745 5748 5750 5753 5755 5757 5759 5761 5763 5765 5766 5768 5770 5771 5773 5774 5775 5776 5777 5778 5778 5779 5780 5780 5781 5782
5682 5686 5689 5693 5696 5700 5702 5705 5709 5712 5715 5718 5721 5724 5727 5730 5733 5736 5739 5741 5743 5746 5748 5750 5752 5754 5756 5758 5760 5761 5763 5765 5765 5766 5767 5768 5769 5770 5771 5771 5772 5773 5773
5670 5674 5677 5681 5684 5688 5691 5694 5698 5701 5704 5707 5710 5713 5717 5720 5723 5726 5728 5731 5734 5736 5739 5741 5743 5745 5747 5749 5750 5752 5754 5755 5756 5758 5758 5759 5760 5761 5762 5762 5763 5763 5764
5658 5662 5665 5669 5672 5676 5679 5683 5686 5689 5692 5695 5698 5702 5705 5708 5711 5714 5718 5720 5723 5726 5728 5731 5733 5735 5737 5739 5740 5742 5744 5745 5747 5748 5749 5750 5750 5751 5752 5753 5753 5754 5754
5646 5650 5653 5657 5660 5664 5667 5671 5674 5677 5680 5682 5685 5689 5692 5696 5699 5702 5706 5709 5712 5715 5718 5720 5722 5724 5727 5729 5730 5732 5734 5735 5736 5738 5739 5740 5741 5741 5742 5742 5743 5743 5744
5634 5638 5641 5645 5648 5652 5655 5658 5661 5664 5667 5670 5673 5676 5679 5683 5687 5690 5694 5697 5700 5703 5706 5708 5711 5713 5715 5717 5719 5721 5723 5724 5726 5727 5728 5729 5730 5731 5731 5731 5731 5732 5732
Wind_Speed
14 14 14 14 14 14 14 13 13 12 12 11 10 10 9 8 8 8 7 7 7 6 6 6 6 6 6 5 5 5 5 5 5 5 4 4 4 3 3 3 3 3 2
16 16 15 15 15 15 15 15 14 14 13 12 12 11 10 10 9 9 8 8 8 8 8 8 8 7 7 7 7 7 6 7 6 6 6 5 5 5 4 4 4 4 3
18 17 16 16 16 16 16 15 16 15 14 14 13 13 12 11 11 10 10 10 10 9 9 9 9 9 9 9 8 8 8 8 7 7 7 7 6 6 5 5 5 5 4
20 19 18 17 17 17 17 16 16 16 15 15 14 14 14 13 12 12 11 11 11 11 11 11 11 10 10 10 10 10 9 9 8 8 8 8 8 7 7 6 6 6 6
21 20 20 19 18 18 18 18 18 17 16 16 16 15 15 15 14 13 13 12 12 12 12 12 12 12 12 12 12 11 10 10 9 9 9 9 8 8 8 7 7 7 7
23 22 21 21 20 20 19 19 19 18 18 17 16 16 16 16 16 15 15 14 14 14 14 13 13 13 14 14 13 12 11 11 11 10 10 10 10 9 9 8 8 8 8
24 23 23 22 22 21 21 20 19 19 19 19 18 17 17 18 17 17 16 16 15 15 14 14 15 15 14 14 14 13 13 12 12 12 12 11 11 11 10 10 9 9 9
25 25 25 24 24 23 22 22 21 21 21 20 19 19 19 18 18 18 18 17 17 16 15 15 16 16 15 15 15 14 14 14 14 14 13 12 12 12 12 11 11 11 11
27 26 26 26 25 25 24 24 23 22 22 21 21 20 20 20 19 19 19 19 18 18 17 17 17 17 17 16 16 16 16 16 15 15 14 14 14 13 13 13 12 12 12
28 28 28 28 27 27 26 26 25 24 23 23 23 22 21 21 21 20 20 19 19 19 19 19 18 18 18 17 17 17 17 16 16 16 16 15 15 15 15 14 14 14 14
31 30 30 30 29 29 28 28 27 26 25 25 24 23 23 23 22 22 22 21 21 20 19 20 20 19 19 19 19 18 18 18 17 17 17 17 17 16 16 16 16 15 15
33 33 32 31 31 30 30 29 29 28 27 27 26 25 25 24 24 23 23 23 22 21 21 21 21 20 20 20 20 19 19 18 18 18 18 18 18 18 18 17 17 17 16
35 34 34 34 33 32 32 31 30 29 29 28 28 27 26 26 25 25 25 24 23 22 22 22 22 22 21 21 20 20 20 20 20 20 19 19 19 19 19 19 19 18 18
37 36 35 35 35 34 34 33 32 31 30 30 29 29 28 27 27 26 26 25 25 24 24 23 23 23 23 22 21 21 21 21 21 21 21 21 21 21 20 20 20 20 19
39 38 37 37 37 36 36 35 34 33 32 32 31 31 31 29 29 28 28 27 26 26 25 25 24 24 25 25 23 23 22 22 22 22 22 23 22 22 22 21 21 21 21
41 41 39 38 38 37 36 36 36 35 34 34 34 33 33 31 31 31 30 30 29 28 28 27 27 27 26 26 26 25 24 24 24 24 24 24 24 23 24 23 23 23 23
42 42 42 41 40 39 39 38 38 37 36 36 35 35 35 34 33 33 32 32 31 30 30 29 29 28 28 27 27 27 26 26 26 26 26 26 26 25 25 25 25 25 25
43 43 44 43 42 41 40 40 40 38 38 38 37 37 36 36 35 35 34 34 33 33 32 31 31 30 30 29 29 28 28 28 28 28 28 28 27 27 27 27 27 27 27
44 44 45 44 43 42 42 42 41 40 40 40 38 38 38 37 37 36 36 35 35 35 35 34 33 32 32 32 31 30 29 29 29 29 29 29 29 29 29 29 29 29 29
46 46 46 46 45 44 44 44 43 43 42 42 41 40 39 39 38 38 37 37 37 37 36 36 36 35 34 33 33 31 31 31 31 31 31 30 30 30 30 30 30 30 30
47 47 47 47 47 47 46 46 46 45 45 44 43 43 41 41 41 40 40 40 39 39 39 37 37 37 36 35 34 33 33 33 33 33 33 32 32 32 32 32 32 32 32
48 47 48 48 48 48 47 47 47 47 47 47 46 45 45 44 43 43 42 42 41 41 40 39 38 38 38 37 36 36 35 35 34 34 34 34 34 33 33 33 33 34 34
48 48 48 49 50 49 48 49 49 50 49 49 49 48 46 46 46 45 44 44 43 42 42 41 40 40 39 39 38 37 37 36 36 36 36 36 36 36 35 35 35 36 36
48 47 48 49 50 50 50 50 50 49 50 50 50 49 49 48 47 47 46 45 44 44 43 42 42 41 41 41 41 40 39 38 38 37 37 38 38 38 38 38 38 38 38
48 48 48 48 49 50 50 50 51 51 51 51 51 51 51 51 50 49 48 48 46 46 45 45 44 44 43 43 42 42 41 40 40 40 39 39 39 39 39 39 39 40 40
47 47 47 47 48 49 50 50 51 51 51 52 52 52 52 52 51 51 50 50 50 49 48 47 46 45 45 44 44 43 43 42 42 42 41 41 41 41 41 41 41 41 41
Wind_Direction
252 252 252 252 251 251 251 251 251 251 251 247 245 246 247 248 249 249 252 257 260 261 257 256 253 252 251 250 251 253 248 246 251 260 257 252 258 264 274 288 295 295 300
253 253 252 252 252 251 250 250 249 249 248 247 246 246 246 247 249 252 253 255 258 260 259 258 255 254 254 252 250 252 251 250 250 257 256 256 261 263 271 280 286 287 284
252 252 253 254 252 251 250 249 247 246 247 247 246 247 246 248 251 254 255 255 255 256 260 262 258 256 257 255 254 254 254 252 253 256 253 254 259 263 270 276 278 280 282
252 252 252 253 252 250 250 249 247 246 246 247 247 247 248 250 252 253 256 256 256 255 256 260 260 256 258 259 258 255 253 251 252 255 253 256 261 265 269 273 275 277 281
252 252 252 252 252 251 250 250 249 248 247 248 249 247 248 250 251 253 255 256 258 257 257 257 258 257 259 261 258 253 251 250 252 254 255 258 261 264 269 272 274 277 279
251 251 252 252 251 250 249 249 249 248 248 249 250 249 248 250 252 252 255 256 257 257 257 256 257 259 261 260 258 253 250 251 253 254 256 257 260 262 267 270 273 275 276
250 250 251 251 249 248 248 248 249 250 249 250 250 249 250 250 251 252 253 254 254 254 255 257 257 260 258 256 258 255 251 252 253 253 254 257 259 261 265 269 271 274 274
250 249 249 249 249 248 247 248 249 250 250 250 250 249 250 250 250 251 252 251 251 252 254 258 259 259 258 258 259 257 254 253 254 254 254 256 258 261 263 266 271 273 274
249 248 247 247 248 248 248 249 250 250 250 250 250 251 250 250 250 251 252 251 251 251 254 257 259 259 260 258 258 256 255 254 255 255 256 256 258 260 262 264 268 271 274
249 248 247 247 248 248 248 249 250 250 250 250 250 250 250 250 250 250 251 250 249 251 253 256 258 259 259 258 258 256 255 255 256 256 257 258 258 260 262 264 266 269 271
248 248 248 248 247 248 248 248 250 249 249 249 249 249 250 250 250 250 250 249 249 250 253 255 257 258 257 257 257 256 254 255 257 257 258 260 260 261 263 264 265 267 269
248 248 247 247 247 247 248 248 249 249 249 248 248 249 249 250 250 250 250 249 250 251 253 255 256 257 257 257 256 255 254 256 257 258 259 260 261 262 263 264 265 266 268
247 247 247 247 247 247 247 248 249 247 248 247 247 247 249 249 250 250 250 249 250 251 252 254 254 256 256 255 255 255 255 255 257 257 259 260 262 263 263 263 265 266 267
245 246 246 247 248 247 248 248 249 248 247 247 246 246 247 248 248 248 250 251 251 251 252 253 254 255 254 254 254 255 255 256 257 257 259 261 263 263 263 263 264 264 265
245 245 246 246 247 248 247 247 247 247 245 245 246 247 248 247 247 248 249 251 252 252 253 253 254 255 256 254 253 254 255 256 258 258 260 260 261 261 263 263 263 264 265
245 245 245 246 247 247 248 247 247 247 246 246 246 247 247 247 248 248 249 250 252 253 254 254 255 256 256 255 254 254 256 257 258 260 261 261 261 262 262 263 264 264 266
245 245 244 245 245 246 247 248 247 247 248 247 247 247 248 247 249 250 249 250 251 253 254 255 256 256 256 256 257 257 257 258 259 260 262 263 263 264 263 264 264 264 265
246 246 245 245 245 246 247 248 247 247 248 248 247 248 249 249 250 250 250 251 252 253 254 255 256 256 257 258 258 258 258 259 260 261 261 262 263 264 264 264 264 265 265
245 245 246 246 245 246 247 247 247 247 247 247 247 248 248 249 250 250 251 251 253 253 253 254 255 256 258 259 258 259 259 260 260 261 261 261 263 264 264 264 264 264 265
244 245 246 246 246 246 247 247 246 246 246 247 247 248 248 248 248 249 251 252 252 253 253 254 255 256 257 257 257 258 259 261 261 261 261 262 264 265 265 265 264 264 265
245 245 246 246 245 246 246 246 246 247 248 249 249 249 248 248 248 249 252 253 253 253 253 255 256 256 256 257 257 258 260 262 263 262 262 262 264 265 266 266 265 265 265
246 245 245 246 245 245 246 246 247 248 249 248 248 248 248 249 249 248 250 252 253 253 254 254 255 255 256 256 257 258 260 262 262 263 262 263 264 265 266 266 266 266 266
246 246 245 246 245 244 245 246 247 248 249 249 248 248 248 249 250 250 250 252 252 253 254 255 256 256 256 256 257 258 260 261 263 263 263 263 264 264 265 265 265 266 266
247 247 246 245 246 245 245 246 247 248 248 249 249 249 249 249 250 250 250 251 252 253 254 255 256 257 256 257 258 258 259 260 262 263 263 263 264 265 266 265 265 266 266
247 248 247 246 246 247 246 247 248 248 249 249 249 249 250 249 250 250 250 250 251 252 254 255 256 256 257 257 258 259 260 260 261 262 263 263 264 266 266 266 266 266 266
247 248 248 248 247 247 247 248 248 249 248 248 248 248 248 249 250 250 251 252 253 253 254 255 256 256 257 257 258 259 260 261 262 263 263 264 265 266 266 266 266 266 266